Weather History for Rochelle, IL

Change the Weather History Date:

Saturday, November 2, 2013

  Actual Average (KRFD) Record (KRFD)
Temperature  
Mean Temperature 40 °F 46 °F  
Max Temperature 48 °F 55 °F 76 °F (1961)
Min Temperature 31 °F 36 °F 12 °F (1951)
Degree Days  
Heating Degree Days 25 19  
Month to date heating degree days 38  
Since 1 July heating degree days 591  
Cooling Degree Days 0 0  
Month to date cooling degree days 0  
Year to date cooling degree days 820  
Moisture  
Dew Point 34 °F    
Average Humidity 85    
Maximum Humidity 100    
Minimum Humidity 57    
Precipitation  
Precipitation 0.00 in 0.10 in 1.95 in (1964)
Month to date precipitation 0.19  
Year to date precipitation 31.87  
Snow  
Snow 0.00 in 0.00 in 0.80 in (1954)
Month to date snowfall 0.0  
Since 1 July snowfall 0.1  
Since 1 September snowfall 0.1  
Snow Depth -    
Sea Level Pressure  
Sea Level Pressure 29.97 in    
Wind  
Wind Speed 4 mph (NW)    
Max Wind Speed 12 mph    
Max Gust Speed 16 mph    
Visibility 8 miles    
Events      
T = Trace of Precipitation, MM = Missing Value Source: NWS Daily Summary

Daily Weather History Graph

Daily Weather History Graph

Search for Another Location

Airport:

Trip Planner

Search our weather history database for the weather conditions in past years. The results will help you decide how hot, cold, wet, or windy it might be!

Date:

Astronomy

Nov. 02, 2013 Rise Set
Actual Time 7:30 AM CDT 5:48 PM CDT
Civil Twilight 7:01 AM CDT 6:17 PM CDT
Nautical Twilight 6:28 AM CDT 6:50 PM CDT
Astronomical Twilight 5:55 AM CDT 7:23 PM CDT
Moon 6:26 AM CDT (11/2) 5:20 PM CDT (11/2)
Length of Visible Light 11h 16m
Length of Day
10h 18m
Waning Crescent, 1% of the Moon is Illuminated
Nov 2
Waning Crescent
Nov 3
New
Nov 9
First Quarter
Nov 17
Full
Nov 25
Last Quarter

Hourly Weather History & Observations

Time (CDT) Temp. Windchill Dew Point Humidity Pressure Visibility Wind Dir Wind Speed Gust Speed Precip Events Conditions
12:15 AM 38.1 °F 34.6 °F 37.2 °F 97% 29.76 in 4.0 mi West 4.6 mph - N/A   Mostly Cloudy
12:35 AM 37.4 °F 34.9 °F 36.5 °F 97% 29.77 in 3.0 mi West 3.5 mph - N/A   Scattered Clouds
12:55 AM 36.0 °F 33.3 °F 35.1 °F 97% 29.77 in 2.5 mi West 3.5 mph - N/A   Clear
1:15 AM 35.2 °F 32.4 °F 34.7 °F 98% 29.77 in 2.5 mi West 3.5 mph - N/A   Clear
1:35 AM 34.7 °F - 33.8 °F 97% 29.78 in 3.0 mi Calm Calm - N/A   Clear
1:55 AM 34.2 °F 31.2 °F 33.6 °F 98% 29.79 in 2.5 mi WNW 3.5 mph - N/A   Clear
2:15 AM 34.0 °F - 33.4 °F 98% 29.79 in 2.5 mi Calm Calm - N/A   Clear
2:35 AM 33.6 °F - 33.1 °F 98% 29.79 in 2.5 mi Calm Calm - N/A   Clear
2:55 AM 33.8 °F 30.8 °F 33.1 °F 97% 29.80 in 3.0 mi WNW 3.5 mph - N/A   Clear
3:15 AM 33.3 °F - 32.9 °F 99% 29.80 in 3.0 mi Calm Calm - N/A   Clear
3:35 AM 33.3 °F 30.2 °F 32.9 °F 99% 29.80 in 3.0 mi WNW 3.5 mph - N/A   Clear
3:55 AM 32.9 °F - 32.4 °F 98% 29.81 in 3.0 mi Calm Calm - N/A   Clear
4:15 AM 32.7 °F - 32.2 °F 98% 29.81 in 3.0 mi Calm Calm - N/A   Clear
4:35 AM 32.7 °F 28.3 °F 32.0 °F 97% 29.81 in 3.0 mi WNW 4.6 mph - N/A   Clear
4:55 AM 32.7 °F 29.6 °F 32.2 °F 98% 29.82 in 4.0 mi WNW 3.5 mph - N/A   Clear
5:15 AM 32.0 °F 28.7 °F 32.0 °F 100% 29.83 in 4.0 mi West 3.5 mph - N/A   Clear
5:35 AM 32.0 °F 28.7 °F 32.0 °F 100% 29.84 in 4.0 mi NW 3.5 mph - N/A   Clear
5:55 AM 33.1 °F 28.7 °F 32.5 °F 98% 29.85 in 7.0 mi WNW 4.6 mph - N/A   Scattered Clouds
6:15 AM 32.4 °F 29.1 °F 32.0 °F 99% 29.86 in 5.0 mi NW 3.5 mph - N/A   Scattered Clouds
6:35 AM 33.4 °F 29.1 °F 32.9 °F 98% 29.87 in 7.0 mi NW 4.6 mph - N/A   Clear
6:55 AM 34.2 °F 31.2 °F 33.6 °F 98% 29.87 in 7.0 mi NW 3.5 mph - N/A   Scattered Clouds
7:15 AM 35.1 °F 30.1 °F 34.0 °F 96% 29.88 in 7.0 mi NNW 5.8 mph - N/A   Overcast
7:35 AM 36.1 °F 31.4 °F 34.7 °F 94% 29.89 in 10.0 mi NW 5.8 mph - N/A   Overcast
7:55 AM 36.9 °F 31.4 °F 35.1 °F 93% 29.89 in 7.0 mi North 6.9 mph - N/A   Overcast
8:15 AM 37.6 °F 32.3 °F 35.6 °F 93% 29.91 in 7.0 mi NNW 6.9 mph - N/A   Overcast
8:35 AM 37.9 °F 32.7 °F 35.6 °F 91% 29.92 in 7.0 mi NW 6.9 mph - N/A   Overcast
8:55 AM 38.5 °F 32.1 °F 36.3 °F 92% 29.92 in 7.0 mi NNW 9.2 mph - N/A   Overcast
9:15 AM 39.2 °F 33.0 °F 36.1 °F 89% 29.93 in 7.0 mi NNW 9.2 mph - N/A   Overcast
9:35 AM 39.6 °F 33.0 °F 36.5 °F 89% 29.93 in 10.0 mi NW 10.4 mph - N/A   Overcast
9:55 AM 39.7 °F 33.7 °F 36.7 °F 89% 29.94 in 10.0 mi NW 9.2 mph - N/A   Overcast
10:15 AM 39.9 °F 32.9 °F 36.7 °F 88% 29.95 in 10.0 mi NW 11.5 mph - N/A   Overcast
10:35 AM 40.3 °F 33.9 °F 36.9 °F 88% 29.96 in 10.0 mi NW 10.4 mph 16.1 mph N/A   Overcast
10:55 AM 40.8 °F 35.0 °F 37.0 °F 86% 29.97 in 10.0 mi NW 9.2 mph - N/A   Overcast
12:15 PM 43.2 °F 37.4 °F 37.2 °F 80% 29.99 in 10.0 mi NW 10.4 mph - N/A   Overcast
12:35 PM 42.8 °F 37.0 °F 36.9 °F 80% 29.99 in 10.0 mi NW 10.4 mph - N/A   Overcast
12:55 PM 43.5 °F 39.4 °F 37.2 °F 78% 30.00 in 10.0 mi NW 6.9 mph - N/A   Overcast
1:15 PM 43.7 °F 39.1 °F 36.9 °F 77% 30.00 in 10.0 mi NW 8.1 mph - N/A   Overcast
1:35 PM 44.2 °F 39.2 °F 37.0 °F 76% 30.00 in 10.0 mi NW 9.2 mph - N/A   Overcast
1:55 PM 45.0 °F 40.6 °F 36.7 °F 73% 30.00 in 10.0 mi NNW 8.1 mph - N/A   Overcast
2:15 PM 46.2 °F 41.7 °F 36.5 °F 69% 30.00 in 10.0 mi NNW 9.2 mph - N/A   Overcast
2:35 PM 46.8 °F - 35.1 °F 64% 30.01 in 10.0 mi NNW 10.4 mph 16.1 mph N/A   Scattered Clouds
2:55 PM 47.5 °F - 35.4 °F 63% 30.02 in 10.0 mi NW 8.1 mph - N/A   Mostly Cloudy
3:15 PM 48.0 °F - 34.2 °F 59% 30.02 in 10.0 mi NW 5.8 mph - N/A   Overcast
3:35 PM 46.0 °F 43.1 °F 34.3 °F 64% 30.02 in 10.0 mi North 5.8 mph - N/A   Overcast
3:55 PM 46.4 °F 43.5 °F 34.3 °F 63% 30.04 in 10.0 mi NW 5.8 mph - N/A   Overcast
4:15 PM 46.6 °F - 34.2 °F 62% 30.04 in 10.0 mi NNW 6.9 mph - N/A   Overcast
4:35 PM 46.8 °F - 32.2 °F 57% 30.04 in 10.0 mi NNW 8.1 mph - N/A   Overcast
4:55 PM 46.8 °F - 32.9 °F 59% 30.05 in 10.0 mi NW 5.8 mph - N/A   Overcast
5:15 PM 46.8 °F - 33.1 °F 59% 30.05 in 10.0 mi NW 4.6 mph - N/A   Overcast
5:35 PM 45.9 °F 42.9 °F 33.4 °F 62% 30.06 in 10.0 mi NW 5.8 mph - N/A   Overcast
5:55 PM 44.2 °F - 34.5 °F 69% 30.07 in 10.0 mi Calm Calm - N/A   Overcast
6:15 PM 42.8 °F 41.1 °F 34.2 °F 72% 30.07 in 10.0 mi North 3.5 mph - N/A   Overcast
6:35 PM 42.1 °F - 35.2 °F 77% 30.08 in 10.0 mi Calm Calm - N/A   Overcast
6:55 PM 41.5 °F - 34.7 °F 77% 30.09 in 10.0 mi Calm Calm - N/A   Overcast
7:15 PM 41.9 °F - 34.7 °F 76% 30.09 in 10.0 mi Calm Calm - N/A   Overcast
7:35 PM 40.3 °F - 35.4 °F 83% 30.10 in 10.0 mi Calm Calm - N/A   Overcast
7:55 PM 41.4 °F - 35.1 °F 78% 30.10 in 10.0 mi Calm Calm - N/A   Overcast
8:15 PM 40.1 °F 38.0 °F 34.7 °F 81% 30.11 in 10.0 mi NW 3.5 mph - N/A   Mostly Cloudy
8:35 PM 40.3 °F - 35.8 °F 84% 30.12 in 10.0 mi Calm Calm - N/A   Overcast
8:55 PM 41.4 °F 38.4 °F 35.4 °F 79% 30.12 in 10.0 mi NW 4.6 mph - N/A   Overcast
9:15 PM 41.2 °F 38.2 °F 34.9 °F 78% 30.13 in 10.0 mi NW 4.6 mph - N/A   Overcast
9:35 PM 39.4 °F 37.2 °F 34.2 °F 82% 30.14 in 10.0 mi NNW 3.5 mph - N/A   Mostly Cloudy
9:55 PM 37.2 °F 34.7 °F 33.4 °F 86% 30.14 in 10.0 mi NNW 3.5 mph - N/A   Scattered Clouds
10:15 PM 36.3 °F 31.6 °F 32.9 °F 87% 30.14 in 10.0 mi NNW 5.8 mph - N/A   Clear
10:35 PM 35.4 °F 32.6 °F 32.2 °F 88% 30.15 in 10.0 mi North 3.5 mph - N/A   Clear
10:55 PM 34.9 °F - 32.0 °F 89% 30.15 in 10.0 mi Calm Calm - N/A   Clear
11:15 PM 32.9 °F - 30.9 °F 92% 30.15 in 10.0 mi Calm Calm - N/A   Clear
11:35 PM 32.2 °F - 31.1 °F 96% 30.15 in 10.0 mi Calm Calm - N/A   Clear
11:55 PM 31.3 °F - 30.0 °F 95% 30.15 in 10.0 mi Calm Calm - N/A   Clear